Location: Dalton
(34.7700°N, 84.9700°W)
Time: 16:46:56
(UTC-04:00)

ISS - Pass Details

Date: 11 October 2017
Orbit: 400 x 408 km, 51.6° (Epoch: 24 October)

Event Time Altitude Azimuth Distance (km) Brightness Sun altitude
Rises 20:26:00 0° 326° (NW) 2,325 0.6 -16.4°
Reaches altitude 10° 20:28:37 10° 348° (NNW) 1,465 -0.8 -17.0°
Enters shadow 20:30:23 16° 20° (NNE) 1,141 -1.7 -17.3°
